CW2014 Weather Reports


time (UTC)temp
C
wind
direction
speed
KPH
gust
KPH
rain 1hr
cm
rain 24hr
cm
rain mn
cm
humidity
%
barometer
mb
20260903090523 30 0 0.0 9.7 0.00 0.00 0.00 48 1010.2
20260903090050 30 225 3.2 9.7 0.00 0.00 0.00 48 1010.2
20260903085523 30 226 1.6 9.7 0.00 0.00 0.00 48 1010.2
20260903085024 30 230 3.2 11.3 0.00 0.00 0.00 47 1010.1
20260903084546 30 212 3.2 11.3 0.00 0.00 0.00 47 1010.2
20260903084026 30 197 3.2 11.3 0.00 0.00 0.00 46 1010.1
20260903083525 31 277 3.2 11.3 0.00 0.00 0.00 46 1010.1
20260903083045 31 227 4.8 11.3 0.00 0.00 0.00 45 1010.1
20260903082524 31 257 3.2 12.9 0.00 0.00 0.00 45 1010.1
20260903082025 31 209 3.2 12.9 0.00 0.00 0.00 45 1010.1
20260903081553 31 248 3.2 12.9 0.00 0.00 0.00 45 1010.2
20260903081025 31 220 4.8 12.9 0.00 0.00 0.00 46 1010.1
20260903080525 31 223 3.2 11.3 0.00 0.00 0.00 47 1010.1
20260903080100 31 213 4.8 9.7 0.00 0.00 0.00 48 1010.1
20260903075525 31 204 3.2 9.7 0.00 0.00 0.00 48 1010.2
20260903075024 31 195 1.6 8.0 0.00 0.00 0.00 49 1010.1
20260903074600 31 228 3.2 8.0 0.00 0.00 0.00 49 1010.2
20260903074024 31 231 0.0 4.8 0.00 0.00 0.00 49 1010.1
20260903073525 31 302 0.0 6.4 0.00 0.00 0.00 49 1010.0
20260903073105 31 307 1.6 6.4 0.00 0.00 0.00 48 1010.1
20260903072524 31 311 1.6 8.0 0.00 0.00 0.00 48 1010.1
20260903072025 31 0 3.2 8.0 0.00 0.00 0.00 47 1010.2
20260903071549 31 309 1.6 11.3 0.00 0.00 0.00 47 1010.1
20260903071024 31 254 1.6 11.3 0.00 0.00 0.00 47 1010.0
20260903070526 32 244 3.2 11.3 0.00 0.00 0.00 46 1010.0
20260903070047 32 207 3.2 12.9 0.00 0.00 0.00 46 1010.1
20260903065526 32 256 3.2 12.9 0.00 0.00 0.00 46 1010.0
20260903065024 31 241 1.6 9.7 0.00 0.00 0.00 46 1010.0
20260903064546 32 201 1.6 6.4 0.00 0.00 0.00 46 1010.0
20260903064024 31 220 1.6 6.4 0.00 0.00 0.00 46 1010.0
20260903063524 32 241 1.6 6.4 0.00 0.00 0.00 46 1010.0
20260903063053 32 200 3.2 6.4 0.00 0.00 0.00 46 1010.0
20260903062523 32 219 1.6 6.4 0.00 0.00 0.00 45 1010.0
20260903062028 32 211 1.6 6.4 0.00 0.00 0.00 45 1010.0
20260903061555 32 240 0.0 6.4 0.00 0.00 0.00 45 1009.9
20260903061027 32 211 0.0 4.8 0.00 0.00 0.00 45 1009.9
20260903060524 32 234 0.0 6.4 0.00 0.00 0.00 45 1009.9
20260903060049 32 0 1.6 6.4 0.00 0.00 0.00 44 1009.8
20260903055525 32 231 1.6 6.4 0.00 0.00 0.00 44 1009.8
20260903055024 32 238 0.0 6.4 0.00 0.00 0.00 44 1009.8
20260903054548 32 254 1.6 6.4 0.00 0.00 0.00 44 1009.8
20260903054024 32 220 1.6 6.4 0.00 0.00 0.00 43 1009.8
20260903053525 32 251 1.6 6.4 0.00 0.00 0.00 43 1009.9
20260903053053 32 242 1.6 6.4 0.00 0.00 0.00 43 1009.8
20260903052528 32 184 1.6 4.8 0.00 0.00 0.00 42 1009.8
20260903052025 32 184 1.6 6.4 0.00 0.00 0.00 42 1009.9
20260903051550 32 184 1.6 6.4 0.00 0.00 0.00 42 1009.9
20260903051025 32 178 1.6 6.4 0.00 0.00 0.00 41 1009.9
20260903050525 32 178 1.6 6.4 0.00 0.00 0.00 41 1009.8
20260903050042 33 0 1.6 6.4 0.00 0.00 0.00 41 1009.8
20260903045524 33 179 1.6 6.4 0.00 0.00 0.00 41 1009.7
20260903045024 33 194 1.6 8.0 0.00 0.00 0.00 40 1009.9
20260903044555 33 0 1.6 8.0 0.00 0.00 0.00 40 1009.8
20260903044027 33 0 3.2 8.0 0.00 0.00 0.00 40 1009.8
20260903043528 33 0 1.6 6.4 0.00 0.00 0.00 39 1009.9
20260903043047 33 229 1.6 6.4 0.00 0.00 0.00 39 1009.7
20260903042527 33 0 1.6 4.8 0.00 0.00 0.00 39 1009.7
20260903042024 33 265 0.0 4.8 0.00 0.00 0.00 38 1009.7
20260903041546 33 299 1.6 4.8 0.00 0.00 0.00 38 1009.6
20260903041025 34 299 1.6 4.8 0.00 0.00 0.00 37 1009.6
20260903040524 34 294 1.6 4.8 0.00 0.00 0.00 37 1009.6
20260903040055 34 298 0.0 4.8 0.00 0.00 0.00 37 1009.6
20260903035524 34 0 1.6 4.8 0.00 0.00 0.00 36 1009.5
20260903035025 34 262 1.6 4.8 0.00 0.00 0.00 36 1009.5
20260903034551 34 266 1.6 4.8 0.00 0.00 0.00 36 1009.6
20260903034026 34 251 0.0 4.8 0.00 0.00 0.00 36 1009.5
20260903033526 35 277 0.0 4.8 0.00 0.00 0.00 36 1009.4
20260903033047 35 282 0.0 4.8 0.00 0.00 0.00 36 1009.4
20260903032529 35 0 1.6 4.8 0.00 0.00 0.00 35 1009.4
20260903032025 35 262 1.6 6.4 0.00 0.00 0.00 35 1009.3
20260903031603 35 261 1.6 6.4 0.00 0.00 0.00 35 1009.1
20260903031025 35 304 1.6 6.4 0.00 0.00 0.00 35 1009.2
20260903030524 35 302 1.6 6.4 0.00 0.00 0.00 35 1009.2
20260903030056 35 299 1.6 6.4 0.00 0.00 0.00 35 1009.1
20260903025524 35 274 1.6 11.3 0.00 0.00 0.00 35 1009.0
20260903025029 35 292 3.2 11.3 0.00 0.00 0.00 34 1008.9
20260903024554 35 303 1.6 8.0 0.00 0.00 0.00 34 1008.9
20260903024026 35 257 1.6 11.3 0.00 0.00 0.00 34 1009.0
20260903023527 35 299 3.2 11.3 0.00 0.00 0.00 34 1008.9
20260903023047 35 273 1.6 9.7 0.00 0.00 0.00 33 1008.9
20260903022525 35 290 3.2 11.3 0.00 0.00 0.00 33 1008.9
20260903022025 35 302 3.2 11.3 0.00 0.00 0.00 33 1008.9
20260903021546 35 306 3.2 11.3 0.00 0.00 0.00 33 1008.8
20260903021026 35 261 1.6 11.3 0.00 0.00 0.00 33 1008.9
20260903020525 36 275 3.2 12.9 0.00 0.00 0.00 32 1008.7
20260903020054 36 282 1.6 12.9 0.00 0.00 0.00 32 1008.7
20260903015527 36 292 3.2 11.3 0.00 0.00 0.00 32 1008.7
20260903015028 36 270 3.2 12.9 0.00 0.00 0.00 32 1008.7
20260903014555 36 0 4.8 12.9 0.00 0.00 0.00 32 1008.7
20260903014026 36 290 3.2 12.9 0.00 0.00 0.00 31 1008.5
20260903013525 36 288 3.2 12.9 0.00 0.00 0.00 31 1008.5
20260903013046 36 303 3.2 12.9 0.00 0.00 0.00 31 1008.3
20260903012528 36 266 1.6 14.5 0.00 0.00 0.00 31 1008.3
20260903012024 36 297 4.8 14.5 0.00 0.00 0.00 30 1008.3
20260903011557 36 290 4.8 14.5 0.00 0.00 0.00 30 1008.3
20260903011028 37 300 3.2 12.9 0.00 0.00 0.00 30 1008.3
20260903010527 37 299 3.2 12.9 0.00 0.00 0.00 30 1008.3
20260903010051 37 275 4.8 12.9 0.00 0.00 0.00 30 1008.4
20260903005523 37 256 3.2 12.9 0.00 0.00 0.00 30 1008.5
20260903005026 37 0 1.6 12.9 0.00 0.00 0.00 30 1008.5
20260903004550 37 0 0.0 14.5 0.00 0.00 0.00 29 1008.5
20260903004026 37 246 1.6 14.5 0.00 0.00 0.00 29 1008.3
20260903003526 37 246 3.2 11.3 0.00 0.00 0.00 29 1008.3
20260903003047 37 313 4.8 11.3 0.00 0.00 0.00 29 1008.3
20260903002525 37 304 3.2 9.7 0.00 0.00 0.00 28 1008.5
20260903002026 38 297 1.6 12.9 0.00 0.00 0.00 28 1008.6
20260903001600 38 275 3.2 12.9 0.00 0.00 0.00 28 1008.6
20260903001026 38 327 1.6 12.9 0.00 0.00 0.00 27 1008.7
20260903000525 38 301 3.2 12.9 0.00 0.00 0.00 28 1008.7
20260903000050 38 247 3.2 16.1 0.00 0.00 0.00 28 1008.6
20260902235527 38 251 4.8 16.1 0.00 0.00 0.00 28 1008.6
20260902235025 38 283 1.6 12.9 0.00 0.00 0.00 28 1008.6
20260902234558 38 0 4.8 12.9 0.00 0.00 0.00 27 1008.7
20260902234027 38 341 3.2 12.9 0.00 0.00 0.00 27 1008.8
20260902233527 38 262 4.8 12.9 0.00 0.00 0.00 27 1008.8
20260902233047 38 309 4.8 14.5 0.00 0.00 0.00 27 1008.8
20260902232529 39 242 3.2 14.5 0.00 0.00 0.00 27 1009.0
20260902232025 38 257 1.6 11.3 0.00 0.00 0.00 27 1008.9
20260902231559 38 187 4.8 14.5 0.00 0.00 0.00 28 1009.1
20260902231026 38 264 1.6 17.7 0.00 0.00 0.00 28 1009.1
20260902230531 38 226 4.8 17.7 0.00 0.00 0.00 28 1009.1
20260902230051 38 223 6.4 19.3 0.00 0.00 0.00 28 1009.4
20260902225527 38 273 8.0 19.3 0.00 0.00 0.00 28 1009.4
20260902225027 38 309 6.4 19.3 0.00 0.00 0.00 27 1009.4
20260902224553 38 331 6.4 17.7 0.00 0.00 0.00 28 1009.4
20260902224027 38 301 6.4 17.7 0.00 0.00 0.00 27 1009.4
20260902223531 38 314 3.2 17.7 0.00 0.00 0.00 29 1009.5
20260902223052 39 132 6.4 17.7 0.00 0.00 0.00 27 1009.6
20260902222525 38 220 4.8 9.7 0.00 0.00 0.00 28 1009.7
20260902222032 38 333 1.6 11.3 0.00 0.00 0.00 29 1009.8
20260902221550 38 297 1.6 12.9 0.00 0.00 0.00 29 1009.7
20260902221028 38 265 4.8 17.7 0.00 0.00 0.00 29 1010.0
20260902220525 38 252 3.2 17.7 0.00 0.00 0.00 29 1009.9
20260902220058 38 231 3.2 14.5 0.00 0.00 0.00 29 1010.1
20260902215525 38 262 3.2 14.5 0.00 0.00 0.00 29 1010.2
20260902215025 38 205 3.2 14.5 0.00 0.00 0.00 31 1010.1
20260902214545 38 315 4.8 14.5 0.00 0.00 0.00 30 1010.0
20260902214026 38 196 4.8 12.9 0.00 0.00 0.00 31 1010.3
20260902213527 38 183 3.2 19.3 0.00 0.00 0.00 31 1010.3
20260902213102 38 210 8.0 20.9 0.00 0.00 0.00 31 1010.5
20260902212525 38 200 3.2 20.9 0.00 0.00 0.00 31 1010.4
20260902212025 38 211 4.8 17.7 0.00 0.00 0.00 30 1010.6
20260902211550 38 197 8.0 19.3 0.00 0.00 0.00 31 1010.7
20260902211030 37 213 6.4 19.3 0.00 0.00 0.00 32 1010.6
20260902210527 37 292 4.8 17.7 0.00 0.00 0.00 32 1010.7
20260902210048 37 263 6.4 17.7 0.00 0.00 0.00 33 1010.8
20260902205525 37 290 8.0 22.5 0.00 0.00 0.00 32 1010.8
20260902205026 38 217 8.0 22.5 0.00 0.00 0.00 32 1010.8
20260902204548 38 226 4.8 17.7 0.00 0.00 0.00 31 1011.1
20260902204025 38 258 6.4 17.7 0.00 0.00 0.00 31 1011.1
20260902203525 38 180 8.0 17.7 0.00 0.00 0.00 32 1011.2
20260902203101 38 218 4.8 16.1 0.00 0.00 0.00 32 1011.1
20260902202525 38 47 1.6 11.3 0.00 0.00 0.00 32 1011.3
20260902202026 37 207 1.6 16.1 0.00 0.00 0.00 34 1011.4
20260902201547 37 310 4.8 17.7 0.00 0.00 0.00 34 1011.5
20260902201023 37 0 4.8 17.7 0.00 0.00 0.00 34 1011.6
20260902200526 37 297 3.2 11.3 0.00 0.00 0.00 34 1011.7
20260902200056 37 169 1.6 11.3 0.00 0.00 0.00 34 1011.8
20260902195526 36 297 3.2 12.9 0.00 0.00 0.00 35 1012.0
20260902195029 37 227 4.8 12.9 0.00 0.00 0.00 34 1012.1
20260902194547 37 264 3.2 12.9 0.00 0.00 0.00 34 1012.1
20260902194026 37 198 4.8 16.1 0.00 0.00 0.00 34 1012.1
20260902193525 37 161 4.8 16.1 0.00 0.00 0.00 34 1012.2
20260902193049 37 189 3.2 14.5 0.00 0.00 0.00 35 1012.3
20260902192525 37 200 3.2 14.5 0.00 0.00 0.00 35 1012.2
20260902192031 37 214 6.4 12.9 0.00 0.00 0.00 35 1012.3
20260902191552 37 224 4.8 14.5 0.00 0.00 0.00 35 1012.5
20260902191029 37 161 4.8 14.5 0.00 0.00 0.00 35 1012.5
20260902190525 37 188 3.2 16.1 0.00 0.00 0.00 35 1012.5
20260902190044 37 189 4.8 16.1 0.00 0.00 0.00 36 1012.7
20260902185525 36 218 1.6 11.3 0.00 0.00 0.00 38 1012.6
20260902185026 36 301 1.6 11.3 0.00 0.00 0.00 37 1012.8
20260902184609 36 300 1.6 12.9 0.00 0.00 0.00 37 1012.9
20260902184030 36 171 4.8 12.9 0.00 0.00 0.00 38 1012.9
20260902183524 36 171 4.8 12.9 0.00 0.00 0.00 39 1013.1
20260902183049 36 158 3.2 14.5 0.00 0.00 0.00 39 1013.1
20260902182527 36 169 3.2 16.1 0.00 0.00 0.00 39 1013.2
20260902182029 36 148 4.8 16.1 0.00 0.00 0.00 39 1013.3
20260902181549 36 0 3.2 14.5 0.00 0.00 0.00 38 1013.4
20260902181026 36 190 6.4 14.5 0.00 0.00 0.00 38 1013.4
20260902180525 36 208 1.6 12.9 0.00 0.00 0.00 39 1013.4
20260902180046 36 207 4.8 12.9 0.00 0.00 0.00 40 1013.5
20260902175523 35 287 4.8 12.9 0.00 0.00 0.00 40 1013.4
20260902175026 35 250 1.6 9.7 0.00 0.00 0.00 40 1013.4
20260902174554 35 192 1.6 9.7 0.00 0.00 0.00 40 1013.4
20260902174029 35 224 1.6 11.3 0.00 0.00 0.00 39 1013.5
20260902173525 36 302 3.2 14.5 0.00 0.00 0.00 39 1013.6
20260902173049 35 0 1.6 14.5 0.00 0.00 0.00 40 1013.6
20260902172529 35 217 4.8 12.9 0.00 0.00 0.00 41 1013.7
20260902172026 35 0 0.0 11.3 0.00 0.00 0.00 41 1013.8
20260902171549 35 252 3.2 9.7 0.00 0.00 0.00 41 1013.7
20260902171025 35 199 1.6 9.7 0.00 0.00 0.00 41 1013.7
20260902170526 35 227 1.6 8.0 0.00 0.00 0.00 42 1013.7
20260902170047 34 261 1.6 8.0 0.00 0.00 0.00 42 1013.7
20260902165524 35 281 1.6 11.3 0.00 0.00 0.00 42 1013.5
20260902165024 35 218 1.6 11.3 0.00 0.00 0.00 43 1013.7
20260902164552 35 116 3.2 11.3 0.00 0.00 0.00 43 1013.6
20260902164024 34 197 1.6 9.7 0.00 0.00 0.00 44 1013.5
20260902163524 34 175 1.6 6.4 0.00 0.00 0.00 45 1013.5
20260902163101 33 74 1.6 6.4 0.00 0.00 0.00 48 1013.5
20260902162523 33 177 1.6 8.0 0.00 0.00 0.00 48 1013.5
20260902162028 33 284 1.6 8.0 0.00 0.00 0.00 49 1013.5
20260902161548 33 202 1.6 9.7 0.00 0.00 0.00 50 1013.5
20260902161029 32 0 1.6 12.9 0.00 0.00 0.00 51 1013.5
20260902160529 32 207 3.2 12.9 0.00 0.00 0.00 51 1013.4
20260902160050 32 172 3.2 12.9 0.00 0.00 0.00 51 1013.4
20260902155525 32 167 1.6 9.7 0.00 0.00 0.00 52 1013.4
20260902155029 32 163 3.2 9.7 0.00 0.00 0.00 53 1013.4
20260902154548 32 0 0.0 6.4 0.00 0.00 0.00 53 1013.4
20260902154024 32 268 1.6 8.0 0.00 0.00 0.00 54 1013.3
20260902153526 31 214 1.6 8.0 0.00 0.00 0.00 53 1013.3
20260902153046 31 177 1.6 8.0 0.00 0.00 0.00 54 1013.3
20260902152525 31 179 1.6 9.7 0.00 0.00 0.00 56 1013.3
20260902152029 31 167 3.2 9.7 0.00 0.00 0.00 57 1013.3
20260902151556 30 0 1.6 9.7 0.00 0.00 0.00 59 1013.2
20260902151024 30 0 0.0 9.7 0.00 0.00 0.00 61 1013.2
20260902150526 30 201 3.2 11.3 0.00 0.00 0.00 61 1013.2
20260902150048 29 147 3.2 11.3 0.00 0.00 0.00 62 1013.3
20260902145524 29 135 3.2 11.3 0.00 0.00 0.00 62 1013.1
20260902145026 29 161 3.2 8.0 0.00 0.00 0.00 63 1013.1
20260902144549 28 165 1.6 14.5 0.00 0.00 0.00 64 1013.1
20260902144025 28 0 3.2 14.5 0.00 0.00 0.00 65 1013.1
20260902143524 28 150 3.2 14.5 0.00 0.00 0.00 65 1013.1
20260902143046 28 174 3.2 14.5 0.00 0.00 0.00 66 1013.0
20260902142525 28 142 6.4 14.5 0.00 0.00 0.00 66 1013.0
20260902142027 27 175 3.2 11.3 0.00 0.00 0.00 66 1013.0
20260902141550 27 183 4.8 17.7 0.00 0.00 0.00 67 1013.0
20260902141026 27 144 3.2 17.7 0.00 0.00 0.00 67 1012.8
20260902140525 27 139 8.0 19.3 0.00 0.00 0.00 67 1012.8
20260902140046 27 178 8.0 19.3 0.00 0.00 0.00 67 1012.7
20260902135526 27 151 6.4 17.7 0.00 0.00 0.00 68 1012.6
20260902135024 27 152 4.8 14.5 0.00 0.00 0.00 68 1012.6
20260902134551 27 0 6.4 14.5 0.00 0.00 0.00 68 1012.5
20260902134029 27 129 4.8 12.9 0.00 0.00 0.00 68 1012.5
20260902133526 26 148 4.8 12.9 0.00 0.00 0.00 68 1012.4
20260902133053 26 155 6.4 12.9 0.00 0.00 0.00 68 1012.4
20260902132525 26 176 4.8 12.9 0.00 0.00 0.00 68 1012.3
20260902132028 26 151 3.2 11.3 0.00 0.00 0.00 68 1012.3
20260902131555 26 145 3.2 14.5 0.00 0.00 0.00 68 1012.1
20260902131026 26 163 3.2 14.5 0.00 0.00 0.00 68 1012.1
20260902130526 26 107 3.2 9.7 0.00 0.00 0.00 68 1012.1
20260902130045 26 141 3.2 9.7 0.00 0.00 0.00 68 1012.0
20260902125525 26 103 3.2 16.1 0.00 0.00 0.00 68 1012.0
20260902125028 26 112 3.2 16.1 0.00 0.00 0.00 68 1011.9
20260902124549 26 136 3.2 16.1 0.00 0.00 0.00 68 1011.9
20260902124023 26 153 4.8 16.1 0.00 0.00 0.00 68 1012.0
20260902123526 27 155 6.4 16.1 0.00 0.00 0.00 67 1011.7
20260902123104 27 146 6.4 16.1 0.00 0.00 0.00 67 1011.8
20260902122529 27 149 4.8 16.1 0.00 0.00 0.00 67 1011.8
20260902122025 27 75 4.8 16.1 0.00 0.00 0.00 67 1011.8
20260902121555 27 146 4.8 14.5 0.00 0.00 0.00 67 1011.8
20260902121024 27 148 4.8 14.5 0.00 0.00 0.00 67 1011.8
20260902120527 27 153 3.2 12.9 0.00 0.00 0.00 67 1011.7
20260902120106 27 157 4.8 12.9 0.00 0.00 0.00 66 1011.6
20260902115524 27 137 3.2 11.3 0.00 0.00 0.00 66 1011.6
20260902115025 27 142 3.2 12.9 0.00 0.00 0.00 66 1011.6
20260902114548 27 175 3.2 12.9 0.00 0.00 0.00 66 1011.5
20260902114024 27 136 3.2 9.7 0.00 0.00 0.00 66 1011.5
20260902113524 27 65 3.2 9.7 0.00 0.00 0.00 67 1011.6
20260902113045 27 69 1.6 9.7 0.00 0.00 0.00 67 1011.6
20260902112526 27 97 1.6 9.7 0.00 0.00 0.00 66 1011.6
20260902112026 27 103 3.2 9.7 0.00 0.00 0.00 66 1011.5
20260902111554 27 107 0.0 8.0 0.00 0.00 0.00 66 1011.4
20260902111023 27 107 0.0 11.3 0.00 0.00 0.00 66 1011.5
20260902110523 27 136 3.2 11.3 0.00 0.00 0.00 65 1011.5
20260902110047 27 171 3.2 9.7 0.00 0.00 0.00 65 1011.6
20260902105524 27 150 1.6 6.4 0.00 0.00 0.00 65 1011.5
20260902105024 27 126 1.6 6.4 0.00 0.00 0.00 65 1011.6
20260902104556 27 107 1.6 6.4 0.00 0.00 0.00 65 1011.6
20260902104025 27 94 0.0 4.8 0.00 0.00 0.00 65 1011.6
20260902103525 27 94 1.6 4.8 0.00 0.00 0.00 64 1011.5
20260902103054 27 0 1.6 4.8 0.00 0.00 0.00 64 1011.5
20260902102525 27 94 0.0 4.8 0.00 0.00 0.00 64 1011.5
20260902102024 28 94 1.6 4.8 0.00 0.00 0.00 64 1011.5
20260902101550 28 148 1.6 4.8 0.00 0.00 0.00 64 1011.5
20260902101030 28 148 1.6 4.8 0.00 0.00 0.00 64 1011.6
20260902100524 28 149 1.6 4.8 0.00 0.00 0.00 64 1011.5
20260902095525 28 0 1.6 4.8 0.00 0.00 0.00 63 1011.4
20260902095024 28 0 1.6 4.8 0.00 0.00 0.00 63 1011.5
20260902094545 28 120 1.6 4.8 0.00 0.00 0.00 63 1011.4
20260902094024 28 148 1.6 4.8 0.00 0.00 0.00 63 1011.5
20260902093524 28 148 1.6 4.8 0.00 0.00 0.00 62 1011.4
20260902093050 28 148 1.6 8.0 0.00 0.00 0.00 62 1011.4
20260902092524 28 148 1.6 8.0 0.00 0.00 0.00 62 1011.4
20260902092024 28 148 3.2 8.0 0.00 0.00 0.00 61 1011.4
20260902091552 28 148 3.2 6.4 0.00 0.00 0.00 61 1011.3
20260902091026 28 0 0.0 4.8 0.00 0.00 0.00 61 1011.3